Location: Izdebno
(52.6670°N, 16.2170°E)
Time: 05:40:19
(UTC+02:00)

Vanguard 1 - Pass Details

Date: 29 February 2024
Orbit: 653 x 3825 km, 34.2° (Epoch: 22 April)

Event Time Altitude Azimuth Distance (km) Brightness Sun altitude
Rises 19:26:04 0° 232° (SW) 5,104 14.4 -17.9°
Reaches altitude 10° 19:29:13 10° 224° (SW) 4,480 13.8 -18.3°
Maximum altitude 19:41:02 38° 163° (SSE) 3,858 12.8 -20.1°
Enters shadow 19:50:49 25° 120° (ESE) 5,221 13.1 -21.5°
